Regional Weather Roundup
Issued by NWS

Home | Current Version | Previous Version | Graphics & Text | Print | Product List | Glossary Off
Versions: 1 2 3 4 5 6 7 8 9 10 11 12 13 14 15 16 17 18 19 20 21 22 23 24 25 26 27 28 29 30 31 32 33 34 35 36 37 38 39 40 41 42 43 44 45 46 47 48 49 50

000
ASUS43 KMKX 021100
RWRWI

WISCONSIN REGIONAL WEATHER ROUNDUP
NATIONAL WEATHER SERVICE MILWAUKEE/SULLIVAN WI
600 AM CDT WED SEP 02 2015

NOTE: "FAIR" INDICATES FEW OR NO CLOUDS BELOW 12,000 FEET WITH NO
SIGNIFICANT WEATHER AND/OR OBSTRUCTIONS TO VISIBILITY.

WIZ001-002-006>008-014>016-023>028-021200-
NORTHWEST WISCONSIN

CITY           SKY/WX    TMP DP  RH WIND       PRES   REMARKS
SUPERIOR ARPT  DRIZZLE   64  62  96 NE5       29.94R
ASHLAND        LGT RAIN  67  67 100 N5        29.95R VSB 3/4
HAYWARD        TSTM      65  64  97 N3        29.98S
SIREN          LGT RAIN  69  67  94 NE5       29.96R
CUMBERLAND     TSTM      68  66  94 CALM      29.96S
RICE LAKE      CLOUDY    72  70  95 NE7       29.97R FOG
CHETEK         CLOUDY   N/A N/A N/A MISG      29.95S HAZE
LADYSMITH      CLOUDY    72  71  96 S5        29.98R FOG
EAU CLAIRE     CLOUDY    73  70  90 SW5       29.95R
MENOMONIE      RAIN      73  72  94 SW5       29.96R
NEW RICHMOND   LGT RAIN  72  72  98 W6        29.94F
OSCEOLA        LGT RAIN  72  72 100 W6        29.96S
$$

WIZ003>005-009-010-017-018-021200-
NORTH CENTRAL WISCONSIN

CITY           SKY/WX    TMP DP  RH WIND       PRES   REMARKS
MANITOWISH WTR CLOUDY    63  63 100 CALM      29.98S FOG
ARBOR VITAE    CLOUDY    66  64  96 CALM      29.99R FOG
WOODRUFF       CLOUDY    66  64  96 CALM      29.99R FOG
RHINELANDER    FOG       68  67  96 CALM      30.00S VSB 3/4
EAGLE RIVER    MOCLDY    63  63 100 CALM      29.99S FOG
LAND O LAKES   MOCLDY    63  63 100 CALM      30.01R FOG
PHILLIPS       CLOUDY    70  70 100 CALM      29.97S FOG
TOMAHAWK       FOG       65  64  97 CALM      29.99S VSB 3/4
MEDFORD        CLOUDY    71  71 100 SW6       29.99R FOG
MERRILL        FOG       64  64 100 CALM      29.99S VSB 1/4
$$

WIZ029-030-035-036-043>047-021200-
CENTRAL WISCONSIN

CITY           SKY/WX    TMP DP  RH WIND       PRES   REMARKS
WAUSAU         PTCLDY    72  71  97 S6        29.98R FOG
MOSINEE        CLOUDY    70  70 100 SW5       30.01R FOG
MARSHFIELD     FOG       70  67  90 SW6       29.99R VSB 1/4
STEVENS POINT  FOG       68  68  99 CALM      30.00R VSB 1
WAUPACA        FOG       70  69  97 CALM      29.98S VSB 1/4
WAUTOMA        NOT AVBL
WISC RAPIDS    LGT RAIN  71  69  93 SW3       30.00R FOG
CAMP DOUGLAS   FOG       65  65 100 E3        29.99R VSB 1/4
$$

WIZ011>013-019>022-031-037>040-048>050-021200-
NORTHEAST WISCONSIN

CITY           SKY/WX    TMP DP  RH WIND       PRES   REMARKS
ANTIGO         FOG       64  64 100 CALM      30.01R VSB 1/4
SHAWANO        FOG       71  70  95 CALM      29.97R VSB 1
OCONTO         PTCLDY    66  66 100 CALM      29.94S
STURGEON BAY   PTCLDY    73  70  88 W6        29.99R
GREEN BAY      CLEAR     69  68  96 CALM      29.97R FOG
MANITOWOC      NOT AVBL
APPLETON       CLEAR     72  72 100 SW7       29.96S FOG
CLINTONVILLE   FOG       66  64  94 CALM      29.98R VSB 1/4
OSHKOSH        CLEAR     72  69  90 SW6       29.99R FOG
$$

WIZ032>034-041-042-053>061-021200-
SOUTHWEST WISCONSIN

CITY           SKY/WX    TMP DP  RH WIND       PRES   REMARKS
LA CROSSE      MOCLDY    75  70  84 SE9       29.96R
SPARTA         PTCLDY    64  63  95 CALM      29.98S
VIROQUA          N/A     70  70 100 SW5       30.01S
BOSCOBEL       FOG       66  65  96 CALM      29.99S VSB 1/4
PRAIRIE DU CHI PTCLDY    70  66  88 CALM      29.99S
PLATTEVILLE    CLEAR     69  68  96 S6        30.03R
$$

WIZ056-057-062-063-064-067-068-021200-
SOUTH CENTRAL WISCONSIN

CITY           SKY/WX    TMP DP  RH WIND       PRES   REMARKS
REEDSBURG      MOCLDY    70  69  96 CALM      29.99S
BARABOO/DELLS  MOCLDY    73  67  83 CALM      30.00S
LONE ROCK      NOT AVBL
MINERAL POINT  PTCLDY    72  68  88 SW6       30.03R
MADISON        MOCLDY    71  67  87 CALM      30.01R
MIDDLETON      PTCLDY    72  69  91 CALM      30.01S
WATERTOWN      CLEAR     66  66 100 CALM      30.01S FOG
MONROE         CLEAR     68  66  94 SW7       30.03R
JANESVILLE     CLEAR     70  68  94 CALM      30.01S
$$

WIZ051-052-058>065-066-070>072-021200-
SOUTHEAST WISCONSIN

CITY           SKY/WX    TMP DP  RH WIND       PRES   REMARKS
MILWAUKEE      CLEAR     74  68  81 W6        30.01R
WAUKESHA       CLEAR     68  66  94 CALM      30.03R
MILWAUKEE/TIMM CLEAR     70  64  83 SW5       30.01S
RACINE         CLEAR     70  67  90 SW3       30.03R
BURLINGTON     CLEAR     64  63  98 CALM      30.02S FOG
KENOSHA        PTCLDY    71  68  90 W6        30.02S
FOND DU LAC    CLEAR     72  70  93 SW5       30.00R
SHEBOYGAN      CLEAR     71  69  93 SW3       29.99R FOG
WEST BEND      CLEAR     70  68  94 CALM      30.01R
JUNEAU         CLEAR     68  68  98 CALM      30.02S FOG
$$

LSZ147-162-021200-
LAKE SUPERIOR

STATION/POSITION TIME  TEMP    WIND        PRES    WAVE
                       AIR SEA DIR/SP/G            HT/PER
                 (UTC) (F)     (DEG/KT/KT) (MB)    (FT/S)
W MID LAKE BUOY  0950   57 56   50/  4/  4 1013.8R   0
DEVILS ISLAND    1000   66      90/  8/  8 1013.2F
PORT WING        1040   62      CALM  /  3 1013.9R
SAXON HARBOR     1000   68     190/  2/  7 1012.9S
$$

LMZ867-665-643>646-021200-
LAKE MICHIGAN

STATION/POSITION TIME  TEMP    WIND        PRES    WAVE
                       AIR SEA DIR/SP/G            HT/PER
                 (UTC) (F)     (DEG/KT/KT) (MB)    (FT/S)
CHAMBERS ISLAND  1000   69      CALM  /  2 1013.5S
S GREEN BAY BUOY 1000   69 67  220/  6/  8 1015.4
N MID LAKE BUOY  0950   66 65  200/  6/  6 1013.6S   1/ 4
NORTHPORT PIER   1000   64     100/  2/  2 1013.5S
SISTER BAY       1019   71        CALM       N/A
ALGOMA LAKESHORE 1044             CALM       N/A
KEWAUNEE LAKESHO 1000          190/  3/  4 1013.2R
SHEBOYGAN LAKESH 1000   74     240/  8/  9 1014.8R
PORT WASHINGTON  1000   74     270/  7/ 11 1015.6S
ATWATER BUOY     1000   61 50  130/  6/  6 1016.9S
MILWAUKEE LAKESH 1010   75     250/  7/  8   N/A
S MID LAKE BUOY  0850   72 70  200/  8/ 10 1015.5R   1/ 4
KENOSHA   LAKESH 1000   76     250/  5/  8 1015.9R
$$

TC  - TEMPERATURE IN CELSIUS
VSB - VISIBILITY IN STATUTE MILES
WCI - WIND CHILL INDEX
HX  - HEAT INDEX




USA.gov is the U.S. government's official web portal to all federal, state and local government web resources and services.